Theta_e
345 344 344 345 345 345 345 343 338 334 337 338 339 337 339 338 339 339 338 337 336 336 338 337 337 336 332 332 335 336 336 337 337 338 338 337 332 334 337 340 336 336 332
344 343 340 343 342 343 342 340 335 334 337 336 335 334 334 340 340 338 334 333 336 336 335 334 333 332 334 337 335 333 334 337 338 337 336 337 335 340 344 344 339 337 335
337 338 338 335 333 333 335 334 332 333 342 334 331 339 339 334 337 340 337 332 330 331 332 337 339 338 335 336 336 335 335 338 341 343 343 338 340 340 341 345 341 339 339
337 335 333 333 335 327 329 331 330 335 339 336 340 337 326 329 336 328 330 327 328 330 336 340 338 339 338 338 336 339 339 339 342 343 338 339 338 333 338 340 337 337 338
342 334 331 334 333 326 328 341 338 332 331 329 327 327 329 334 330 329 328 328 329 334 338 336 335 339 340 339 339 341 342 342 343 342 336 336 342 332 336 332 330 332 335
345 335 336 341 337 327 332 341 339 334 335 328 327 336 339 333 332 331 333 335 334 330 330 333 336 339 340 341 342 342 342 342 341 337 341 343 340 331 325 330 341 333 329
345 333 336 338 324 331 327 330 327 324 324 326 337 336 332 330 331 331 331 331 332 335 337 338 338 337 337 338 339 343 340 341 341 335 335 342 339 334 326 326 326 328 329
342 336 337 333 330 332 325 336 334 335 329 331 331 328 328 331 331 334 336 336 332 330 330 331 332 333 334 336 339 341 342 342 340 338 336 339 341 339 334 330 325 325 328
344 334 335 325 334 331 327 331 335 328 327 328 330 342 345 346 347 346 343 343 342 342 341 341 340 339 338 337 339 341 344 341 335 340 339 334 337 341 340 340 336 332 326
342 339 323 330 336 331 332 326 328 333 334 345 345 349 350 349 342 343 346 346 343 346 344 341 343 345 342 339 339 344 331 333 339 338 338 335 339 341 338 339 341 337 337
344 341 339 348 345 332 328 336 345 347 349 350 348 349 340 344 341 344 348 347 347 347 342 342 347 344 342 337 344 341 335 337 341 339 340 338 338 339 339 341 343 343 340
347 347 343 347 346 331 338 347 346 344 345 345 347 346 343 342 344 348 346 348 348 347 345 346 343 342 343 344 344 342 343 343 344 340 340 340 342 341 341 342 343 341 342
345 349 346 336 348 342 345 348 349 345 347 343 344 347 345 346 348 346 347 347 349 347 346 345 348 346 346 345 343 346 338 344 344 343 341 338 340 342 343 341 339 337 336
348 349 343 341 346 347 344 350 348 347 347 349 347 349 348 346 349 349 348 344 349 348 349 343 346 346 347 347 346 345 346 344 345 347 346 343 340 339 340 341 342 342 342
348 348 342 342 343 343 347 350 348 349 348 342 342 345 345 344 348 347 348 347 344 344 345 346 345 344 344 346 347 341 344 345 345 344 346 346 345 343 342 342 340 340 340
347 348 346 342 345 342 350 347 347 348 348 347 341 346 346 337 348 348 347 351 351 351 348 349 347 344 347 346 343 342 341 346 346 345 346 346 346 345 344 344 343 340 338
346 345 346 345 343 345 348 347 348 351 350 349 348 341 346 349 348 349 346 350 350 350 350 349 352 349 350 349 346 346 343 345 346 345 345 347 346 344 341 338 337 334 330
347 345 344 332 343 348 344 347 350 348 350 352 348 344 344 344 349 349 348 350 352 353 348 343 348 348 347 347 344 347 345 344 344 346 344 345 344 339 337 334 331 329 327
348 345 342 342 347 342 347 351 350 346 348 352 350 348 341 344 349 350 349 347 350 350 351 341 347 350 347 341 344 342 341 345 347 342 343 347 339 335 332 330 330 331 327
347 346 343 349 349 344 347 351 348 348 348 351 349 348 340 342 350 349 353 355 350 354 350 346 346 348 346 345 336 341 343 338 341 341 344 341 336 335 332 329 327 328 330
346 344 347 352 350 345 346 341 343 343 346 347 348 347 340 335 342 344 352 354 349 350 349 350 347 346 346 341 333 337 338 334 336 334 333 338 336 331 327 328 327 327 330
348 347 351 353 350 349 342 345 349 348 350 349 348 348 338 336 336 338 345 346 350 353 351 349 344 340 342 337 335 326 330 333 332 330 332 332 326 325 326 326 326 329 327
346 348 349 352 351 349 342 350 352 350 351 349 348 344 343 339 342 343 344 340 341 354 353 348 345 336 338 337 335 332 328 327 327 326 326 325 327 326 326 325 327 326 328
347 349 347 349 348 349 347 351 350 351 350 345 344 346 348 343 350 348 351 348 345 352 350 348 345 335 328 329 326 331 330 328 330 327 320 325 326 326 326 325 326 326 327
346 347 347 345 347 346 346 349 349 350 349 347 346 348 347 346 351 351 351 351 346 348 352 349 346 338 324 317 321 324 325 326 325 322 324 322 322 325 327 326 326 326 323
348 347 347 348 344 343 348 350 349 346 346 350 347 346 347 350 351 353 352 353 350 351 354 349 347 335 325 315 315 324 321 320 321 323 323 323 321 325 327 326 325 324 325
Wind_Speed
13 14 14 13 11 10 10 11 10 10 11 12 13 13 13 14 15 14 12 12 12 11 11 11 12 11 11 10 11 12 12 13 12 14 12 11 10 9 9 8 9 8 7
15 14 13 13 12 12 11 10 10 10 11 12 10 11 13 13 13 13 11 11 11 11 12 12 12 11 13 12 12 14 12 11 11 12 14 13 11 9 8 6 7 6 6
16 15 14 12 11 10 10 9 10 11 11 11 12 13 12 11 12 11 10 10 10 10 11 12 11 11 10 9 10 11 11 9 8 6 8 8 8 8 8 8 6 5 5
15 14 14 13 12 11 11 11 11 11 11 11 12 12 11 11 12 10 9 10 10 10 11 11 11 10 8 7 9 10 8 4 4 2 6 6 4 3 5 6 5 6 5
14 12 13 13 12 12 12 12 11 10 10 9 10 11 11 10 12 10 9 10 9 9 9 8 8 7 8 7 6 6 4 2 2 5 13 11 8 6 6 6 5 5 5
11 11 13 14 11 12 12 12 10 11 10 11 11 11 9 9 11 9 9 9 9 8 7 6 7 5 6 5 5 5 5 5 2 10 7 10 9 6 5 5 6 5 4
10 11 13 12 11 12 11 10 10 10 10 11 11 10 11 11 11 9 9 7 6 5 5 4 5 5 6 6 7 9 6 4 8 12 17 8 7 5 5 5 5 4 4
9 12 12 12 12 11 12 12 12 12 12 11 11 11 12 13 11 10 10 10 8 7 5 5 5 5 6 7 8 12 8 9 13 15 10 8 8 6 5 3 4 4 4
8 12 10 11 12 11 11 11 12 12 13 12 11 12 11 10 9 9 8 8 11 11 9 8 7 6 5 4 5 12 6 8 10 13 1 3 6 6 5 3 4 5 3
10 8 13 14 11 11 11 14 15 16 15 10 10 12 4 4 11 5 6 9 9 10 9 7 6 9 10 8 10 8 22 2 10 7 3 15 7 7 5 3 4 4 4
9 11 15 15 12 11 14 17 17 14 10 5 11 13 8 5 7 9 10 6 9 6 11 8 9 11 10 14 13 7 8 13 12 12 16 15 9 6 5 4 3 2 2
15 12 12 10 11 16 15 12 15 12 10 8 11 15 14 16 13 12 16 10 7 14 14 12 12 17 21 10 7 11 18 7 16 18 18 13 9 5 3 2 2 2 2
17 17 15 8 14 11 11 11 8 7 11 15 11 12 10 11 10 14 14 14 8 14 15 11 11 12 14 12 15 9 10 8 11 14 18 14 9 6 4 4 3 3 2
19 22 15 16 15 11 4 6 7 10 9 12 10 9 8 7 12 10 8 14 15 13 11 11 11 12 9 7 11 14 15 6 8 13 14 12 9 5 3 3 3 2 2
20 22 20 14 15 15 9 10 7 9 10 13 10 9 9 5 8 11 9 7 11 12 15 15 14 13 11 9 5 9 5 6 9 10 7 8 7 5 6 4 4 4 6
24 27 23 16 16 17 13 13 10 11 10 11 14 9 13 16 14 15 13 8 10 10 8 14 13 13 12 9 5 12 4 5 3 4 4 5 4 5 7 8 8 9 7
25 22 17 13 17 19 16 15 14 7 6 5 11 13 8 9 15 16 15 11 10 10 10 6 6 11 10 9 12 11 2 3 4 6 1 2 5 5 6 7 9 14 8
23 19 13 15 21 14 20 17 10 12 9 4 5 11 9 8 11 12 12 10 12 10 14 8 3 8 10 12 12 13 5 4 3 1 3 3 6 6 5 8 11 15 9
21 18 12 16 13 18 22 17 11 14 13 4 2 7 5 10 10 11 12 11 12 10 16 12 8 8 15 19 9 9 7 3 3 6 5 4 4 3 8 12 17 19 13
22 19 18 20 13 16 19 17 13 12 11 8 2 4 4 4 7 7 7 8 7 9 13 12 14 10 14 18 14 17 18 16 11 9 8 3 3 4 8 15 17 17 9
22 21 25 25 17 14 23 20 18 13 11 7 5 6 3 4 3 3 3 6 7 7 14 15 15 10 13 15 15 13 15 15 15 10 7 6 3 8 13 10 15 9 6
28 24 27 24 22 16 21 18 12 10 6 8 8 3 3 3 5 5 3 4 4 7 10 14 16 11 16 14 13 11 3 3 11 13 9 5 10 11 13 12 16 6 10
32 30 32 26 24 20 20 19 12 11 13 10 7 6 2 5 8 4 7 6 3 6 8 12 12 7 6 8 11 8 4 5 9 4 6 10 7 11 11 14 8 10 8
34 32 28 32 28 22 22 20 19 16 14 9 9 5 2 6 7 1 5 13 3 3 6 9 10 10 9 5 3 5 3 3 2 6 6 5 6 8 11 8 8 9 8
34 35 29 32 31 27 24 23 22 20 16 4 7 6 6 4 3 3 6 10 9 3 6 9 9 9 10 7 4 3 1 4 6 7 8 12 8 2 7 3 4 6 12
35 37 32 29 32 29 29 24 21 25 20 13 10 10 7 3 7 7 8 10 14 8 6 10 10 9 10 8 2 3 5 6 6 5 8 10 10 7 4 2 9 11 10
Wind_Direction
125 118 112 116 122 118 111 103 99 102 98 92 92 91 93 95 95 99 100 101 102 101 100 103 103 100 96 95 96 101 111 122 124 136 148 151 150 150 156 148 124 110 118
137 125 122 116 117 115 114 110 107 100 98 98 98 94 92 90 91 90 89 92 96 99 98 100 100 102 101 95 93 98 111 127 131 140 139 150 149 153 154 160 115 127 130
133 127 120 119 119 117 115 118 112 109 106 95 95 87 87 85 86 87 86 86 90 97 99 97 96 99 112 106 94 99 104 111 130 129 133 138 159 170 177 174 183 165 159
134 129 127 123 122 122 121 111 111 106 100 94 92 87 79 86 82 79 82 84 93 105 105 102 96 95 91 93 96 92 98 111 123 133 127 159 160 197 204 209 205 181 174
118 127 129 123 123 121 120 114 109 107 102 98 95 93 87 86 84 78 81 85 90 97 100 93 83 80 82 71 70 70 38 1 292 18 129 159 150 233 208 212 200 198 177
132 141 133 131 124 117 122 114 111 102 100 94 95 88 83 80 77 82 79 76 76 81 80 69 64 58 65 58 42 45 21 340 315 52 83 172 166 227 210 196 176 167 185
128 148 141 131 125 118 122 120 107 106 100 98 94 83 77 69 65 63 64 68 73 79 81 78 81 52 38 26 34 38 21 294 304 54 182 173 167 169 208 193 170 169 176
141 149 139 128 125 113 120 113 103 96 93 92 85 79 79 75 65 59 51 43 47 51 47 34 37 43 29 22 21 19 2 2 82 71 126 172 167 159 175 171 141 142 156
121 147 135 121 121 113 119 109 100 91 89 92 102 99 90 89 74 63 51 45 46 43 40 45 45 39 18 31 41 25 73 20 16 345 123 83 155 163 145 183 140 131 125
132 113 122 116 112 111 108 106 101 94 96 105 78 53 33 37 45 49 40 43 50 40 41 45 47 64 68 57 52 39 21 81 53 65 29 125 146 178 147 206 177 148 149
141 120 129 112 107 101 111 106 101 94 81 65 70 39 67 64 63 62 61 41 37 32 55 41 27 40 50 57 80 58 45 92 108 104 112 114 126 154 176 188 180 157 177
151 142 123 124 110 112 116 105 95 97 78 65 43 61 65 54 58 52 52 48 46 50 52 36 48 60 56 87 112 85 30 57 76 98 94 97 93 108 135 133 130 149 162
146 148 160 143 142 124 97 93 87 72 75 71 49 65 65 64 66 63 59 57 49 46 48 43 36 46 66 51 46 46 58 63 63 73 77 79 85 89 126 118 127 130 118
158 154 156 133 141 181 153 128 108 80 127 84 87 80 59 67 59 79 66 42 49 41 38 19 39 37 25 0 47 37 32 62 81 52 56 70 73 73 56 33 12 6 330
171 160 154 154 149 159 165 170 139 106 77 52 59 108 60 78 92 79 83 71 69 61 51 46 38 22 8 19 99 28 29 94 55 54 34 73 85 96 82 59 19 336 314
164 169 169 181 171 175 142 146 143 102 82 56 63 79 72 88 95 78 75 55 43 31 25 25 25 36 27 29 353 360 327 122 76 104 81 84 58 63 39 36 19 1 333
176 176 185 199 191 173 157 141 129 118 122 50 52 79 92 59 70 69 63 79 67 44 34 16 19 28 25 11 14 2 13 129 210 344 35 59 68 55 31 0 352 348 331
177 184 194 180 165 164 154 145 132 143 142 164 40 69 72 58 77 64 64 57 49 39 16 23 354 34 23 17 12 37 58 120 225 341 278 66 71 60 21 2 359 354 334
185 186 192 160 161 158 155 138 136 138 123 126 46 54 66 87 111 72 66 54 27 3 5 22 41 27 24 16 26 30 11 121 77 96 95 122 93 21 358 352 348 343 341
192 188 170 176 179 164 166 153 147 139 128 138 153 349 9 88 83 76 54 41 10 351 11 40 31 34 24 19 39 48 101 88 94 55 97 122 131 4 4 338 327 334 343
179 181 168 184 195 183 169 157 149 147 133 154 230 298 305 88 93 77 46 41 350 357 13 18 27 28 42 20 35 89 95 71 93 59 34 143 52 351 338 338 338 350 327
190 190 174 185 195 192 172 155 157 168 224 196 225 269 304 25 32 41 200 359 47 11 11 5 21 61 60 31 23 40 69 61 84 52 47 11 359 348 352 334 340 343 343
191 194 187 190 194 193 170 166 190 195 195 189 219 286 159 33 24 50 26 32 30 31 357 357 5 27 39 46 29 41 26 8 5 16 35 30 23 359 346 347 342 335 335
194 200 200 198 203 193 181 186 194 198 193 207 211 224 278 358 33 24 344 12 36 2 350 356 1 15 10 23 27 84 72 340 1 313 330 344 348 11 333 324 323 332 332
199 201 205 203 205 200 193 192 199 200 198 175 198 208 281 320 351 327 326 354 12 332 349 338 353 5 14 13 26 33 6 280 301 307 320 326 330 81 7 289 317 335 344
201 204 204 205 210 203 197 195 196 200 188 187 204 225 240 261 293 262 290 327 340 328 318 327 342 3 11 22 28 345 357 4 350 341 328 329 346 36 91 355 357 2 342